Location: Kuffner-Sternwarte
(48.2130°N, 16.2960°E)
Time: 06:28:08
(UTC+02:00)

Envisat - Pass Details

Date: 21 September 2024
Orbit: 762 x 764 km, 98.3° (Epoch: 04 October)

Event Time Altitude Azimuth Distance (km) Brightness Sun altitude
Rises 03:59:06 0° 16° (NNE) 3,237 7.0 -26.1°
Reaches altitude 10° 04:01:26 10° 19° (NNE) 2,307 6.1 -25.8°
Maximum altitude 04:06:30 67° 102° (ESE) 825 3.2 -25.1°
Enters shadow 04:07:54 46° 166° (SSE) 1,018 3.4 -24.9°
